sat.trackr.live / text

‹ back to catalog

OBZOR-R 1

NORAD 67234 · 2025-310A

PAYLOAD ACTIVE UNKNOWN

§ Identity

Operator
Country
CIS
Launch date
2025-12-25
Launch site
PLMSC
Launch vehicle
Mass (kg)
RCS (m²)

External: N2YO · Heavens-Above · Gunter

§ Orbital elements

Epoch: 2026-09-20T22:57:01.570752Z

Period
97.57 min
Inclination
97.9688°
Eccentricity
0.0001196
Mean motion
14.75911860 rev/d
Perigee alt
641.4 km
Apogee alt
643.1 km
Semi-major
7,020.4 km
B*
1.7400e-5
RAAN
269.8809°
Arg perigee
80.4309°
Mean anomaly
279.7035°
Rev number
3,975

§ Raw data

OBZOR-R 11 67234U 25310A   26263.95626818  .00000069  00000+0  17400-4 0  99972 67234  97.9688 269.8809 0001196  80.4309 279.7035 14.75911860 39753

JSON: /api/v1/satellites/67234 · /tle

For live sub-satellite position, see the globe view (requires WebGL).

§ Visibility from observer

Set your observer location to see the next 7 days of passes ≥ 10°. The values pass through the URL so the page stays shareable.

No JS? Fill the form by hand. The geolocation button needs JavaScript.